Погода в Печенежине

Украина / Ивано-Франковская область     48°30′35″N   24°53′21″E
темп.,
°C
ветер,
м/с
пор.,
м/с
влажн.,
%
обл.,
%
осадки,
мм/ч
давл.,
гПа
погр.,
м
22 апреля, чт
чт2200:00+6юз2278100 0.0 101625
03:00+6ююз238199 0.0 101655
06:00+8ююз227786 0.0 101621
09:00+11юз3767100 0.0 1016894
12:00+13зюз5856100 0.0 10161166
15:00+16зюз574598 0.0 10142095
18:00+14зюз4754100 0.0 10141399
21:00+3сз61295100 0.3 1019468
23 апреля, пт
пт2300:00+4зсз4989100 2.0 1019555
03:00+4юз2381100 2.1 1019154
06:00+3зсз2384100 0.1 101986
09:00+5сз4672100 0.1 1021820
12:00+7сз355588 0.1 10201441
15:00+8сз4559100 0.4 10201439
18:00+6зсз3674100 1.0 1021988
21:00+3ююз33904 1.4 102245
24 апреля, сб
сб2400:00+3сз4987100 0.1 1023461
03:00+2сз5118146 0.4 1023586
06:00−1з36835 0.0 1024112
09:00+4сз610574 0.0 10251614
12:00+7сз593596 0.0 10242442
15:00+9ссз683682 0.0 10232204
18:00+9с564289 0.0 10221218
21:00+4зсз016489 0.0 102410
25 апреля, вс
вс2500:00+2юз217115 0.0 102412
03:00+1ююз117518 0.0 102212
06:00+2зсз2388100 0.5 102299
09:00+3з369199 1.9 1023458
12:00+5ссз7107095 1.0 10241303
15:00+8сз694392 1.1 10231930
18:00+7ссз674790 0.0 10231594
21:00+2зсз116988 0.0 102510
26 апреля, пн
пн2600:000юз227879 0.0 102417
03:00−1юз22829 0.0 102321
06:00−1юз2281100 0.0 102314
09:00+6ююв225776 0.0 1021328
12:00+11вюв3543100 0.0 10191691
15:00+13вюв454180 0.0 10141521
18:00+11с2461100 0.2 1014718
21:00+6сз2591100 0.8 1015136